contact:dominique.lefevre@mio.osupytheas.fr, maurice.libes@osupytheas.fr, didier.mallarino@osupytheas.fr
Project:EMSO http://www.emso-fr.org/EMSO-France
Depth: 2436.0 m
Title:EMSO Ligure Ouest : Data MII capteur AQUADOPP
Date,Latitude,Longitude,X_East,Y_North,Z_Up,Amplitude_X,Amplitude_Y,Amplitude_Z,Batterie,SoundSpeed,Heading,Pitch,Roll,Pressure,TIS,Speed,Direction
, degrees North, degrees East, m.s-1, m.s-1,m.s-1, 1, 1, 1, Volt, m.s-1, degree, degree, degree, dbar, degree_C, m.s-1, degree
2022-05-15T00:04:03,42.805,6.029,0.05,-0.002,0.009,103.0,105.0,100.0,13.4,1505.2,328.2,-0.8,1.8,2470.76,13.28,0.05,92.3
2022-05-15T00:07:03,42.805,6.029,0.088,-0.019,0.038,102.0,105.0,101.0,13.4,1505.2,321.8,-0.8,1.8,2470.747,13.28,0.09,102.2
2022-05-15T00:10:03,42.805,6.029,0.065,-0.023,0.025,99.0,104.0,101.0,13.3,1505.2,330.7,-0.8,1.8,2470.712,13.28,0.068,109.5
2022-05-15T00:13:03,42.805,6.029,0.056,-0.023,0.009,102.0,102.0,101.0,13.4,1505.2,327.4,-0.8,1.8,2470.707,13.28,0.06,112.3
2022-05-15T00:16:03,42.805,6.029,0.073,0.003,0.013,101.0,105.0,102.0,13.4,1505.2,322.0,-0.8,1.8,2470.732,13.28,0.073,87.6
2022-05-15T00:19:03,42.805,6.029,0.07,-0.005,0.021,102.0,104.0,102.0,13.4,1505.2,325.9,-0.8,1.8,2470.702,13.28,0.07,94.1
2022-05-15T00:22:03,42.805,6.029,0.055,-0.014,0.003,102.0,106.0,101.0,13.4,1505.2,325.9,-0.8,1.8,2470.747,13.28,0.056,104.3
2022-05-15T00:25:03,42.805,6.029,0.075,-0.012,0.057,102.0,107.0,100.0,13.4,1505.2,321.4,-0.8,1.8,2470.739,13.28,0.075,99.1
2022-05-15T00:28:03,42.805,6.029,0.07,0.002,0.025,101.0,105.0,101.0,13.4,1505.2,322.7,-0.8,1.9,2470.759,13.28,0.07,88.4
2022-05-15T00:31:03,42.805,6.029,0.068,-0.023,0.011,102.0,104.0,100.0,13.3,1505.2,329.2,-0.8,1.8,2470.784,13.28,0.071,108.7
2022-05-15T00:34:03,42.805,6.029,0.078,-0.02,0.033,103.0,106.0,100.0,13.3,1505.2,326.5,-0.8,1.9,2470.738,13.28,0.08,104.4
2022-05-15T00:37:03,42.805,6.029,0.087,0.0,0.02,101.0,105.0,101.0,13.4,1505.2,321.9,-0.8,1.8,2470.773,13.28,0.086,90.0
2022-05-15T00:40:03,42.805,6.029,0.106,-0.019,0.054,102.0,105.0,100.0,13.4,1505.2,330.9,-0.8,1.8,2470.788,13.28,0.107,100.2
2022-05-15T00:43:03,42.805,6.029,0.074,-0.033,0.03,102.0,103.0,101.0,13.4,1505.2,327.0,-0.8,1.8,2470.789,13.28,0.081,114.0
2022-05-15T00:46:03,42.805,6.029,0.083,0.004,0.026,100.0,104.0,100.0,13.4,1505.2,324.5,-0.8,1.8,2470.798,13.28,0.083,87.2
2022-05-15T00:49:03,42.805,6.029,0.058,0.004,-0.024,101.0,106.0,100.0,13.4,1505.2,323.3,-0.7,1.8,2470.753,13.28,0.058,86.1
2022-05-15T00:52:03,42.805,6.029,0.071,-0.016,-0.006,101.0,103.0,100.0,13.4,1505.2,323.3,-0.7,1.8,2470.811,13.28,0.072,102.7
2022-05-15T00:55:03,42.805,6.029,0.083,-0.001,0.043,103.0,104.0,100.0,13.3,1505.2,323.1,-0.8,1.8,2470.814,13.28,0.083,90.7
2022-05-15T00:58:03,42.805,6.029,0.059,-0.004,0.035,101.0,104.0,101.0,13.4,1505.2,324.7,-0.8,1.8,2470.839,13.28,0.059,93.9
2022-05-15T01:04:03,42.805,6.029,0.061,-0.004,0.031,103.0,105.0,102.0,13.3,1505.2,325.2,-0.8,1.8,2470.822,13.28,0.061,93.7
2022-05-15T01:07:03,42.805,6.029,0.084,-0.02,0.008,103.0,104.0,102.0,13.4,1505.2,333.0,-0.8,1.8,2470.837,13.28,0.086,103.4
2022-05-15T01:10:03,42.805,6.029,0.041,-0.008,-0.025,103.0,105.0,100.0,13.3,1505.2,323.5,-0.7,1.8,2470.8,13.28,0.041,101.0
2022-05-15T01:13:03,42.805,6.029,0.074,-0.011,0.045,102.0,105.0,101.0,13.4,1505.2,325.3,-0.7,1.8,2470.825,13.28,0.074,98.5
2022-05-15T01:16:03,42.805,6.029,0.106,-0.023,0.002,102.0,104.0,101.0,13.3,1505.2,332.6,-0.8,1.8,2470.807,13.28,0.108,102.2
2022-05-15T01:19:03,42.805,6.029,0.082,-0.008,0.026,101.0,104.0,102.0,13.4,1505.2,331.1,-0.7,1.8,2470.784,13.28,0.082,95.6
2022-05-15T01:22:03,42.805,6.029,0.076,-0.021,0.006,101.0,105.0,102.0,13.4,1505.2,325.3,-0.8,1.8,2470.809,13.28,0.078,105.4
2022-05-15T01:25:03,42.805,6.029,0.083,-0.022,0.042,102.0,104.0,101.0,13.4,1505.2,328.8,-0.8,1.8,2470.82,13.28,0.085,104.8
2022-05-15T01:28:03,42.805,6.029,0.091,-0.018,0.027,102.0,104.0,101.0,13.4,1505.2,327.6,-0.7,1.8,2470.804,13.28,0.092,101.2
2022-05-15T01:31:03,42.805,6.029,0.076,-0.002,0.024,101.0,105.0,101.0,13.3,1505.2,327.3,-0.7,1.8,2470.83,13.28,0.076,91.5
2022-05-15T01:34:03,42.805,6.029,0.074,0.0,0.021,102.0,104.0,102.0,13.4,1505.2,328.8,-0.7,1.8,2470.83,13.28,0.073,90.0
2022-05-15T01:37:03,42.805,6.029,0.077,-0.024,0.009,102.0,102.0,102.0,13.4,1505.2,327.6,-0.7,1.8,2470.829,13.28,0.08,107.3
2022-05-15T01:40:03,42.805,6.029,0.058,-0.016,0.023,102.0,103.0,102.0,13.4,1505.2,327.2,-0.8,1.9,2470.804,13.28,0.06,105.4
2022-05-15T01:43:03,42.805,6.029,0.076,-0.007,0.014,103.0,103.0,101.0,13.4,1505.2,328.6,-0.8,1.8,2470.791,13.28,0.076,95.3
2022-05-15T01:46:03,42.805,6.029,0.079,-0.027,0.008,101.0,102.0,101.0,13.4,1505.2,328.4,-0.8,1.8,2470.839,13.28,0.083,108.9
2022-05-15T01:49:03,42.805,6.029,0.065,-0.007,0.023,102.0,103.0,100.0,13.3,1505.2,327.1,-0.8,1.8,2470.848,13.28,0.065,96.1
2022-05-15T01:52:03,42.805,6.029,0.079,-0.017,0.012,102.0,105.0,100.0,13.4,1505.2,324.7,-0.8,1.8,2470.79,13.28,0.08,102.1
2022-05-15T01:55:03,42.805,6.029,0.067,-0.028,-0.019,103.0,104.0,101.0,13.3,1505.2,328.7,-0.8,1.8,2470.802,13.28,0.072,112.7
2022-05-15T01:58:03,42.805,6.029,0.076,-0.02,-0.009,101.0,106.0,100.0,13.4,1505.2,323.5,-0.8,1.8,2470.862,13.28,0.078,104.7
2022-05-15T02:04:03,42.805,6.029,0.076,-0.003,0.031,103.0,104.0,101.0,13.4,1505.2,329.1,-0.8,1.8,2470.914,13.28,0.076,92.3
2022-05-15T02:07:03,42.805,6.029,0.104,-0.022,0.002,102.0,104.0,101.0,13.4,1505.2,325.7,-0.8,1.8,2470.845,13.28,0.106,101.9
2022-05-15T02:10:03,42.805,6.029,0.051,-0.013,0.016,101.0,105.0,101.0,13.3,1505.2,329.0,-0.8,1.8,2470.868,13.28,0.052,104.3
2022-05-15T02:13:03,42.805,6.029,0.089,-0.017,0.014,102.0,105.0,101.0,13.4,1505.2,326.8,-0.7,1.8,2470.851,13.28,0.09,100.8
2022-05-15T02:16:03,42.805,6.029,0.094,-0.014,0.062,103.0,105.0,101.0,13.4,1505.2,329.6,-0.8,1.8,2470.831,13.28,0.095,98.5
2022-05-15T02:19:03,42.805,6.029,0.058,-0.021,0.007,102.0,104.0,100.0,13.4,1505.2,331.4,-0.8,1.8,2470.845,13.28,0.061,109.9
2022-05-15T02:22:03,42.805,6.029,0.056,-0.016,-0.022,101.0,105.0,102.0,13.4,1505.2,321.2,-0.8,1.8,2470.856,13.28,0.058,105.9
2022-05-15T02:25:03,42.805,6.029,0.074,-0.02,0.01,102.0,103.0,101.0,13.4,1505.2,324.1,-0.8,1.8,2470.824,13.28,0.076,105.1
2022-05-15T02:28:03,42.805,6.029,0.081,-0.004,0.006,103.0,103.0,101.0,13.4,1505.2,330.5,-0.8,1.8,2470.863,13.28,0.081,92.8
2022-05-15T02:31:03,42.805,6.029,0.09,-0.003,0.041,102.0,105.0,101.0,13.4,1505.2,321.8,-0.8,1.8,2470.848,13.28,0.09,91.9
2022-05-15T02:34:03,42.805,6.029,0.081,-0.013,0.031,101.0,105.0,101.0,13.4,1505.2,328.8,-0.8,1.8,2470.88,13.28,0.082,99.1
2022-05-15T02:37:03,42.805,6.029,0.064,-0.007,0.01,101.0,106.0,101.0,13.3,1505.2,324.9,-0.8,1.8,2470.84,13.28,0.064,96.2
2022-05-15T02:40:03,42.805,6.029,0.081,-0.008,0.032,102.0,104.0,101.0,13.3,1505.2,331.8,-0.8,1.8,2470.87,13.28,0.081,95.6
2022-05-15T02:43:03,42.805,6.029,0.074,0.0,-0.016,103.0,105.0,100.0,13.3,1505.2,324.4,-0.8,1.8,2470.838,13.28,0.073,90.0
2022-05-15T02:46:03,42.805,6.029,0.056,0.005,0.034,103.0,106.0,100.0,13.4,1505.2,321.3,-0.8,1.8,2470.875,13.28,0.056,84.9
2022-05-15T02:49:03,42.805,6.029,0.066,-0.005,0.003,101.0,104.0,101.0,13.4,1505.2,322.6,-0.7,1.8,2470.874,13.28,0.066,94.3
2022-05-15T02:52:03,42.805,6.029,0.068,-0.018,0.019,102.0,107.0,100.0,13.4,1505.2,332.2,-0.7,1.8,2470.851,13.28,0.07,104.8
2022-05-15T02:55:03,42.805,6.029,0.078,-0.025,0.015,102.0,104.0,101.0,13.3,1505.2,329.6,-0.8,1.8,2470.899,13.28,0.081,107.8
2022-05-15T02:58:03,42.805,6.029,0.065,-0.02,-0.008,102.0,105.0,101.0,13.4,1505.2,332.2,-0.8,1.8,2470.87,13.28,0.068,107.1
2022-05-15T03:04:03,42.805,6.029,0.072,-0.014,0.005,103.0,104.0,101.0,13.4,1505.2,326.0,-0.7,1.8,2470.983,13.28,0.073,101.0
2022-05-15T03:07:03,42.805,6.029,0.069,-0.016,0.013,102.0,102.0,102.0,13.3,1505.2,321.5,-0.8,1.8,2470.915,13.28,0.07,103.1
2022-05-15T03:10:03,42.805,6.029,0.061,-0.008,0.014,101.0,104.0,100.0,13.3,1505.2,325.0,-0.8,1.8,2470.863,13.28,0.061,97.5
2022-05-15T03:13:03,42.805,6.029,0.08,-0.033,0.003,102.0,103.0,101.0,13.4,1505.2,329.9,-0.7,1.9,2470.864,13.28,0.086,112.4
2022-05-15T03:16:03,42.805,6.029,0.11,-0.013,0.037,101.0,104.0,100.0,13.4,1505.2,332.4,-0.8,1.8,2470.888,13.28,0.11,96.7
2022-05-15T03:19:03,42.805,6.029,0.091,-0.024,0.004,102.0,104.0,101.0,13.3,1505.2,331.3,-0.8,1.8,2470.908,13.28,0.094,104.8
2022-05-15T03:22:03,42.805,6.029,0.089,-0.016,0.013,102.0,104.0,101.0,13.4,1505.2,325.9,-0.8,1.8,2470.919,13.28,0.09,100.2
2022-05-15T03:25:03,42.805,6.029,0.097,-0.012,0.017,101.0,104.0,101.0,13.4,1505.2,322.3,-0.7,1.8,2470.9,13.28,0.097,97.1
2022-05-15T03:28:03,42.805,6.029,0.057,-0.001,0.008,103.0,106.0,101.0,13.3,1505.2,323.3,-0.8,1.8,2470.893,13.28,0.057,91.0
2022-05-15T03:31:03,42.805,6.029,0.045,-0.005,0.016,103.0,106.0,100.0,13.3,1505.2,331.1,-0.8,1.8,2470.908,13.28,0.045,96.3
2022-05-15T03:34:03,42.805,6.029,0.086,-0.015,0.035,103.0,103.0,101.0,13.4,1505.2,324.5,-0.7,1.8,2470.892,13.28,0.087,99.9
2022-05-15T03:37:03,42.805,6.029,0.071,-0.017,0.01,103.0,105.0,99.0,13.4,1505.2,333.2,-0.8,1.8,2470.898,13.28,0.073,103.5
2022-05-15T03:40:03,42.805,6.029,0.061,-0.008,0.015,102.0,103.0,101.0,13.4,1505.2,322.2,-0.8,1.8,2470.925,13.28,0.061,97.5
2022-05-15T03:43:03,42.805,6.029,0.071,-0.011,-0.01,103.0,101.0,101.0,13.4,1505.2,327.9,-0.7,1.8,2470.921,13.28,0.071,98.8
2022-05-15T03:46:03,42.805,6.029,0.068,-0.017,0.027,103.0,104.0,100.0,13.3,1505.2,327.2,-0.8,1.8,2470.908,13.28,0.07,104.0
2022-05-15T03:49:03,42.805,6.029,0.067,-0.001,0.014,102.0,105.0,100.0,13.4,1505.2,324.9,-0.7,1.8,2470.906,13.28,0.067,90.9
2022-05-15T03:52:03,42.805,6.029,0.09,-0.016,0.015,102.0,106.0,101.0,13.3,1505.2,329.4,-0.7,1.8,2470.941,13.28,0.091,100.1
2022-05-15T03:55:03,42.805,6.029,0.078,-0.024,-0.002,102.0,102.0,101.0,13.4,1505.2,326.1,-0.8,1.8,2470.918,13.28,0.081,107.1
2022-05-15T03:58:03,42.805,6.029,0.077,-0.007,0.031,102.0,105.0,99.0,13.4,1505.2,323.8,-0.8,1.8,2470.924,13.28,0.077,95.2
2022-05-15T04:04:03,42.805,6.029,0.078,-0.012,0.02,101.0,105.0,101.0,13.4,1505.2,331.6,-0.8,1.8,2470.967,13.28,0.078,98.7
2022-05-15T04:07:03,42.805,6.029,0.064,-0.017,0.031,102.0,103.0,102.0,13.3,1505.2,328.8,-0.8,1.9,2470.937,13.28,0.066,104.9
2022-05-15T04:10:03,42.805,6.029,0.076,-0.012,0.002,103.0,103.0,101.0,13.4,1505.2,332.0,-0.8,1.8,2470.944,13.28,0.076,99.0
2022-05-15T04:13:03,42.805,6.029,0.073,-0.001,0.013,102.0,103.0,100.0,13.3,1505.2,328.4,-0.8,1.8,2470.944,13.28,0.073,90.8
2022-05-15T04:16:03,42.805,6.029,0.05,-0.011,-0.006,103.0,105.0,100.0,13.4,1505.2,330.6,-0.8,1.8,2470.931,13.28,0.051,102.4
2022-05-15T04:19:03,42.805,6.029,0.099,0.007,0.045,103.0,105.0,101.0,13.3,1505.2,324.7,-0.7,1.8,2470.897,13.28,0.099,86.0
2022-05-15T04:22:03,42.805,6.029,0.078,-0.004,-0.002,103.0,103.0,101.0,13.4,1505.2,324.8,-0.8,1.8,2470.959,13.28,0.078,92.9
2022-05-15T04:25:03,42.805,6.029,0.066,-0.002,0.037,103.0,105.0,100.0,13.4,1505.2,328.0,-0.8,1.8,2470.948,13.28,0.066,91.7
2022-05-15T04:28:03,42.805,6.029,0.045,-0.018,-0.009,102.0,104.0,101.0,13.4,1505.2,325.1,-0.7,1.8,2470.955,13.28,0.048,111.8
2022-05-15T04:31:03,42.805,6.029,0.052,0.007,0.004,102.0,105.0,101.0,13.4,1505.2,324.2,-0.8,1.8,2470.975,13.28,0.052,82.3
2022-05-15T04:34:03,42.805,6.029,0.075,-0.026,0.003,102.0,104.0,100.0,13.3,1505.2,325.0,-0.8,1.8,2470.96,13.28,0.079,109.1
2022-05-15T04:37:03,42.805,6.029,0.069,-0.001,0.037,101.0,105.0,101.0,13.4,1505.2,330.4,-0.7,1.8,2470.964,13.28,0.069,90.8
2022-05-15T04:40:03,42.805,6.029,0.067,-0.022,0.021,102.0,105.0,101.0,13.3,1505.2,329.7,-0.8,1.8,2470.947,13.28,0.07,108.2
2022-05-15T04:43:03,42.805,6.029,0.079,-0.016,0.001,102.0,104.0,101.0,13.4,1505.2,322.7,-0.8,1.8,2470.986,13.28,0.08,101.4
2022-05-15T04:46:03,42.805,6.029,0.056,-0.013,0.013,102.0,105.0,101.0,13.4,1505.2,321.8,-0.7,1.9,2470.95,13.28,0.057,103.1
2022-05-15T04:49:03,42.805,6.029,0.079,-0.004,0.007,103.0,102.0,101.0,13.4,1505.2,327.7,-0.7,1.8,2470.983,13.28,0.079,92.9
2022-05-15T04:52:03,42.805,6.029,0.09,-0.015,0.037,102.0,106.0,101.0,13.4,1505.2,327.6,-0.7,1.8,2470.977,13.28,0.091,99.5
2022-05-15T04:55:03,42.805,6.029,0.073,-0.005,0.013,104.0,104.0,100.0,13.4,1505.2,322.4,-0.8,1.8,2470.936,13.28,0.073,93.9
2022-05-15T04:58:03,42.805,6.029,0.06,0.0,0.041,102.0,104.0,102.0,13.3,1505.2,329.6,-0.8,1.8,2470.971,13.28,0.06,90.0
2022-05-15T05:04:03,42.805,6.029,0.078,0.004,0.01,102.0,104.0,101.0,13.4,1505.2,321.1,-0.8,1.8,2471.041,13.28,0.078,87.1
2022-05-15T05:07:03,42.805,6.029,0.073,0.015,0.026,103.0,104.0,100.0,13.4,1505.2,320.6,-0.8,1.8,2470.979,13.28,0.074,78.4
2022-05-15T05:10:03,42.805,6.029,0.086,0.001,0.035,103.0,104.0,101.0,13.4,1505.2,324.5,-0.8,1.8,2470.967,13.28,0.086,89.3
2022-05-15T05:13:03,42.805,6.029,0.062,-0.004,0.022,102.0,103.0,101.0,13.4,1505.2,327.1,-0.8,1.8,2471.013,13.28,0.062,93.7
2022-05-15T05:16:03,42.805,6.029,0.079,-0.032,0.009,102.0,104.0,101.0,13.4,1505.2,327.4,-0.8,1.8,2471.023,13.28,0.085,112.0
2022-05-15T05:19:03,42.805,6.029,0.08,-0.009,0.038,103.0,104.0,101.0,13.3,1505.2,329.5,-0.8,1.9,2470.981,13.28,0.08,96.4
2022-05-15T05:22:03,42.805,6.029,0.068,-0.002,0.021,102.0,104.0,101.0,13.3,1505.2,332.8,-0.7,1.8,2471.016,13.28,0.068,91.7
2022-05-15T05:25:03,42.805,6.029,0.085,-0.029,0.013,102.0,105.0,102.0,13.4,1505.2,329.1,-0.8,1.8,2471.014,13.28,0.089,108.8
2022-05-15T05:28:03,42.805,6.029,0.085,-0.008,0.008,103.0,104.0,101.0,13.3,1505.2,322.0,-0.7,1.8,2470.977,13.28,0.085,95.4
2022-05-15T05:31:03,42.805,6.029,0.084,-0.022,-0.011,102.0,102.0,101.0,13.3,1505.2,323.0,-0.8,1.8,2471.017,13.28,0.086,104.7
2022-05-15T05:34:03,42.805,6.029,0.063,-0.006,0.03,103.0,104.0,101.0,13.4,1505.2,327.1,-0.8,1.8,2470.993,13.28,0.063,95.4
2022-05-15T05:37:03,42.805,6.029,0.084,-0.021,-0.009,102.0,104.0,102.0,13.4,1505.2,321.4,-0.7,1.8,2471.01,13.28,0.086,104.0
2022-05-15T05:40:03,42.805,6.029,0.098,0.011,0.058,102.0,103.0,101.0,13.3,1505.2,324.1,-0.8,1.8,2471.017,13.28,0.098,83.6
2022-05-15T05:43:03,42.805,6.029,0.086,-0.01,0.035,102.0,105.0,101.0,13.3,1505.2,328.8,-0.7,1.8,2470.998,13.28,0.086,96.6
2022-05-15T05:46:03,42.805,6.029,0.048,0.004,-0.001,104.0,104.0,102.0,13.4,1505.2,324.4,-0.8,1.8,2471.016,13.28,0.048,85.2
2022-05-15T05:49:03,42.805,6.029,0.077,-0.007,0.036,103.0,106.0,101.0,13.4,1505.2,325.1,-0.7,1.8,2471.011,13.28,0.077,95.2
2022-05-15T05:52:03,42.805,6.029,0.084,-0.008,-0.01,103.0,103.0,102.0,13.3,1505.2,324.3,-0.8,1.8,2471.006,13.28,0.084,95.4
2022-05-15T05:55:03,42.805,6.029,0.097,0.001,0.038,103.0,105.0,101.0,13.4,1505.2,329.4,-0.7,1.8,2470.991,13.28,0.097,89.4
2022-05-15T05:58:03,42.805,6.029,0.066,-0.006,0.002,102.0,104.0,101.0,13.4,1505.2,325.5,-0.7,1.9,2470.978,13.28,0.066,95.2
2022-05-15T06:04:04,42.805,6.029,0.092,-0.008,0.055,103.0,104.0,101.0,13.4,1505.2,327.9,-0.7,1.8,2471.063,13.28,0.092,95.0
2022-05-15T06:07:03,42.805,6.029,0.077,0.001,0.019,103.0,104.0,100.0,13.4,1505.2,323.6,-0.8,1.8,2470.988,13.28,0.077,89.3
2022-05-15T06:10:03,42.805,6.029,0.107,-0.013,0.014,103.0,102.0,101.0,13.3,1505.2,328.1,-0.7,1.8,2471.015,13.28,0.107,96.9
2022-05-15T06:13:03,42.805,6.029,0.078,-0.012,0.018,102.0,102.0,101.0,13.3,1505.2,322.9,-0.8,1.8,2471.038,13.28,0.078,98.7
2022-05-15T06:16:03,42.805,6.029,0.062,0.0,0.046,101.0,106.0,102.0,13.4,1505.2,328.5,-0.8,1.8,2470.975,13.28,0.061,90.0
2022-05-15T06:19:03,42.805,6.029,0.076,-0.03,0.002,104.0,104.0,99.0,13.4,1505.2,327.3,-0.8,1.8,2471.013,13.28,0.081,111.5
2022-05-15T06:22:03,42.805,6.029,0.076,0.018,0.013,102.0,104.0,101.0,13.4,1505.2,328.4,-0.7,1.8,2471.001,13.28,0.078,76.7
2022-05-15T06:25:03,42.805,6.029,0.084,-0.004,0.043,102.0,106.0,100.0,13.4,1505.2,324.6,-0.8,1.8,2471.003,13.28,0.084,92.7
2022-05-15T06:28:03,42.805,6.029,0.055,-0.008,-0.001,104.0,104.0,100.0,13.4,1505.2,327.9,-0.8,1.8,2470.981,13.28,0.055,98.3
2022-05-15T06:31:03,42.805,6.029,0.099,-0.003,0.035,102.0,104.0,101.0,13.4,1505.2,320.7,-0.7,1.8,2470.961,13.28,0.099,91.7
2022-05-15T06:34:03,42.805,6.029,0.059,-0.009,0.015,103.0,101.0,101.0,13.3,1505.2,331.1,-0.8,1.8,2471.003,13.28,0.059,98.7
2022-05-15T06:37:03,42.805,6.029,0.088,-0.018,0.01,103.0,104.0,101.0,13.3,1505.2,327.6,-0.8,1.8,2471.001,13.28,0.089,101.6
2022-05-15T06:40:03,42.805,6.029,0.108,-0.022,0.036,102.0,104.0,100.0,13.4,1505.2,332.4,-0.8,1.8,2471.02,13.28,0.11,101.5
2022-05-15T06:43:03,42.805,6.029,0.08,-0.013,-0.01,102.0,105.0,101.0,13.3,1505.2,327.0,-0.7,1.8,2470.993,13.28,0.081,99.2
2022-05-15T06:46:03,42.805,6.029,0.078,-0.017,0.031,103.0,104.0,101.0,13.3,1505.2,332.6,-0.7,1.8,2470.967,13.28,0.079,102.3
2022-05-15T06:49:03,42.805,6.029,0.079,-0.009,0.032,102.0,104.0,101.0,13.4,1505.2,332.4,-0.7,1.8,2471.004,13.28,0.079,96.5
2022-05-15T06:52:03,42.805,6.029,0.081,-0.012,0.015,102.0,103.0,100.0,13.4,1505.2,330.8,-0.8,1.8,2471.035,13.28,0.081,98.4
2022-05-15T06:55:03,42.805,6.029,0.076,-0.032,-0.017,101.0,104.0,101.0,13.3,1505.2,331.8,-0.7,1.8,2470.979,13.28,0.082,112.8
2022-05-15T06:58:03,42.805,6.029,0.05,-0.025,0.006,103.0,104.0,101.0,13.4,1505.2,325.8,-0.8,1.8,2470.995,13.28,0.055,116.6
2022-05-15T07:04:03,42.805,6.029,0.063,-0.017,-0.011,103.0,105.0,101.0,13.4,1505.2,330.9,-0.8,1.8,2471.037,13.28,0.065,105.1
2022-05-15T07:07:03,42.805,6.029,0.077,0.006,0.036,103.0,105.0,101.0,13.3,1505.2,325.5,-0.7,1.8,2471.049,13.28,0.077,85.5
2022-05-15T07:10:03,42.805,6.029,0.07,0.001,0.011,104.0,104.0,101.0,13.4,1505.2,321.5,-0.8,1.8,2471.007,13.28,0.07,89.2
2022-05-15T07:13:03,42.805,6.029,0.075,-0.015,0.018,103.0,103.0,101.0,13.3,1505.2,320.5,-0.7,1.8,2470.977,13.28,0.076,101.3
2022-05-15T07:16:03,42.805,6.029,0.074,-0.015,0.001,103.0,103.0,100.0,13.4,1505.2,321.7,-0.7,1.8,2470.934,13.28,0.075,101.5
2022-05-15T07:19:03,42.805,6.029,0.085,-0.008,0.041,103.0,103.0,100.0,13.4,1505.2,329.4,-0.8,1.8,2470.947,13.28,0.085,95.4
2022-05-15T07:22:03,42.805,6.029,0.084,-0.013,-0.017,103.0,104.0,101.0,13.3,1505.2,323.2,-0.7,1.8,2470.922,13.28,0.084,98.8
2022-05-15T07:25:03,42.805,6.029,0.096,-0.02,-0.005,102.0,105.0,101.0,13.4,1505.2,321.8,-0.7,1.8,2470.956,13.28,0.098,101.8
2022-05-15T07:28:03,42.805,6.029,0.072,-0.018,-0.011,103.0,102.0,102.0,13.4,1505.2,325.0,-0.8,1.8,2470.931,13.28,0.074,104.0
2022-05-15T07:31:03,42.805,6.029,0.086,-0.037,0.03,102.0,103.0,101.0,13.3,1505.2,329.9,-0.8,1.8,2470.924,13.28,0.093,113.3
2022-05-15T07:34:03,42.805,6.029,0.081,-0.009,0.02,102.0,105.0,102.0,13.4,1505.2,323.2,-0.8,1.8,2470.916,13.28,0.081,96.3
2022-05-15T07:37:03,42.805,6.029,0.091,0.004,0.047,102.0,103.0,101.0,13.4,1505.2,329.5,-0.8,1.8,2470.94,13.28,0.091,87.5
2022-05-15T07:40:03,42.805,6.029,0.086,-0.016,0.014,102.0,103.0,101.0,13.4,1505.2,323.2,-0.8,1.8,2470.939,13.28,0.087,100.5
2022-05-15T07:43:03,42.805,6.029,0.076,-0.031,0.034,102.0,104.0,101.0,13.4,1505.2,324.7,-0.8,1.8,2470.919,13.28,0.082,112.2
2022-05-15T07:46:03,42.805,6.029,0.06,-0.007,0.012,102.0,104.0,101.0,13.4,1505.2,326.6,-0.8,1.8,2470.944,13.28,0.06,96.7
2022-05-15T07:49:03,42.805,6.029,0.089,-0.007,0.034,102.0,102.0,101.0,13.3,1505.2,323.2,-0.8,1.8,2470.911,13.28,0.089,94.5
2022-05-15T07:52:03,42.805,6.029,0.084,-0.009,0.009,102.0,103.0,102.0,13.4,1505.2,324.7,-0.7,1.8,2470.883,13.28,0.084,96.1
2022-05-15T07:55:03,42.805,6.029,0.057,-0.036,0.016,103.0,103.0,101.0,13.4,1505.2,331.2,-0.8,1.8,2470.896,13.28,0.067,122.3
2022-05-15T07:58:03,42.805,6.029,0.094,-0.008,0.019,102.0,104.0,101.0,13.4,1505.2,322.3,-0.7,1.8,2470.896,13.28,0.094,94.9
2022-05-15T08:04:03,42.805,6.029,0.07,-0.012,-0.048,103.0,103.0,101.0,13.4,1505.2,325.3,-0.8,1.8,2470.919,13.28,0.071,99.7
2022-05-15T08:07:03,42.805,6.029,0.087,-0.067,-0.011,102.0,103.0,101.0,13.3,1505.2,325.7,-0.8,1.8,2470.898,13.28,0.109,127.6
2022-05-15T08:10:03,42.805,6.029,0.077,0.0,0.021,102.0,103.0,101.0,13.3,1505.2,324.4,-0.8,1.8,2470.888,13.28,0.076,90.0
2022-05-15T08:13:03,42.805,6.029,0.077,-0.057,0.011,103.0,101.0,101.0,13.4,1505.2,327.0,-0.8,1.8,2470.943,13.28,0.095,126.5
2022-05-15T08:16:03,42.805,6.029,0.09,-0.01,0.016,103.0,103.0,101.0,13.3,1505.2,327.2,-0.8,1.8,2470.906,13.28,0.09,96.3
2022-05-15T08:19:03,42.805,6.029,0.051,-0.022,0.007,103.0,104.0,101.0,13.4,1505.2,331.3,-0.7,1.9,2470.908,13.28,0.055,113.3
2022-05-15T08:22:03,42.805,6.029,0.12,-0.031,0.03,102.0,102.0,100.0,13.4,1505.2,329.6,-0.7,1.8,2470.881,13.28,0.123,104.5
2022-05-15T08:25:03,42.805,6.029,0.051,-0.019,-0.008,103.0,102.0,101.0,13.4,1505.2,323.8,-0.7,1.8,2470.916,13.28,0.054,110.4
2022-05-15T08:28:03,42.805,6.029,0.088,-0.033,-0.029,103.0,103.0,101.0,13.3,1505.2,327.0,-0.7,1.8,2470.906,13.28,0.093,110.6
2022-05-15T08:31:03,42.805,6.029,0.092,-0.018,0.032,102.0,102.0,100.0,13.4,1505.2,321.0,-0.8,1.8,2470.836,13.28,0.093,101.1
2022-05-15T08:34:03,42.805,6.029,0.082,-0.031,-0.006,102.0,102.0,101.0,13.4,1505.2,330.2,-0.8,1.8,2470.905,13.28,0.087,110.7
2022-05-15T08:37:03,42.805,6.029,0.06,-0.015,0.008,102.0,103.0,100.0,13.3,1505.2,326.8,-0.8,1.8,2470.875,13.28,0.061,104.0
2022-05-15T08:40:03,42.805,6.029,0.071,-0.019,-0.005,103.0,104.0,101.0,13.4,1505.2,324.6,-0.8,1.8,2470.884,13.28,0.073,105.0
2022-05-15T08:43:03,42.805,6.029,0.08,-0.017,-0.005,102.0,103.0,101.0,13.4,1505.2,325.4,-0.8,1.9,2470.846,13.28,0.081,102.0
2022-05-15T08:46:03,42.805,6.029,0.059,-0.016,0.024,102.0,103.0,101.0,13.4,1505.2,329.1,-0.8,1.8,2470.868,13.28,0.061,105.2
2022-05-15T08:49:03,42.805,6.029,0.09,-0.017,0.006,103.0,102.0,101.0,13.4,1505.2,321.5,-0.8,1.8,2470.892,13.28,0.091,100.7
2022-05-15T08:52:03,42.805,6.029,0.079,-0.013,0.031,103.0,104.0,101.0,13.4,1505.2,332.2,-0.8,1.8,2470.885,13.28,0.08,99.3
2022-05-15T08:55:03,42.805,6.029,0.069,-0.034,0.015,101.0,101.0,101.0,13.4,1505.2,328.3,-0.7,1.9,2470.845,13.28,0.076,116.2
2022-05-15T08:58:03,42.805,6.029,0.085,-0.017,-0.011,102.0,101.0,101.0,13.4,1505.2,327.8,-0.8,1.8,2470.843,13.28,0.086,101.3
2022-05-15T09:04:03,42.805,6.029,0.068,-0.03,0.008,102.0,104.0,101.0,13.4,1505.2,330.1,-0.8,1.8,2470.97,13.28,0.074,113.8
2022-05-15T09:07:03,42.805,6.029,0.078,-0.034,0.022,102.0,102.0,100.0,13.3,1505.2,327.3,-0.7,1.9,2470.876,13.28,0.085,113.5
2022-05-15T09:10:03,42.805,6.029,0.076,-0.052,0.011,102.0,101.0,100.0,13.3,1505.2,329.9,-0.8,1.8,2470.875,13.28,0.092,124.4
2022-05-15T09:13:03,42.805,6.029,0.052,-0.029,-0.012,103.0,103.0,100.0,13.3,1505.2,326.8,-0.7,1.9,2470.848,13.28,0.059,119.1
2022-05-15T09:16:03,42.805,6.029,0.084,0.002,0.056,101.0,102.0,101.0,13.4,1505.2,322.6,-0.7,1.8,2470.849,13.28,0.084,88.6
2022-05-15T09:19:03,42.805,6.029,0.097,-0.047,-0.001,104.0,103.0,100.0,13.4,1505.2,329.4,-0.8,1.8,2470.88,13.28,0.107,115.9
2022-05-15T09:22:03,42.805,6.029,0.076,-0.039,-0.009,102.0,103.0,101.0,13.3,1505.2,330.3,-0.7,1.8,2470.859,13.28,0.085,117.2
2022-05-15T09:25:03,42.805,6.029,0.062,-0.02,0.01,102.0,103.0,101.0,13.4,1505.2,329.6,-0.8,1.9,2470.846,13.28,0.065,107.9
2022-05-15T09:28:03,42.805,6.029,0.089,-0.038,-0.003,103.0,102.0,101.0,13.3,1505.2,333.2,-0.8,1.8,2470.849,13.28,0.096,113.1
2022-05-15T09:31:03,42.805,6.029,0.077,-0.021,-0.025,102.0,103.0,101.0,13.4,1505.2,327.4,-0.7,1.8,2470.853,13.28,0.079,105.3
2022-05-15T09:34:03,42.805,6.029,0.101,-0.045,0.01,103.0,101.0,102.0,13.4,1505.2,327.8,-0.8,1.8,2470.858,13.28,0.11,114.0
2022-05-15T09:37:03,42.805,6.029,0.062,-0.025,0.003,102.0,102.0,101.0,13.3,1505.2,326.0,-0.8,1.9,2470.848,13.28,0.066,112.0
2022-05-15T09:40:03,42.805,6.029,0.097,-0.018,-0.004,102.0,103.0,100.0,13.4,1505.2,324.0,-0.8,1.8,2470.842,13.28,0.098,100.5
2022-05-15T09:43:03,42.805,6.029,0.035,-0.029,0.004,102.0,103.0,101.0,13.4,1505.2,328.3,-0.8,1.8,2470.845,13.28,0.045,129.6
2022-05-15T09:46:03,42.805,6.029,0.077,-0.031,-0.033,102.0,101.0,100.0,13.3,1505.2,326.3,-0.7,1.9,2470.835,13.28,0.083,111.9
2022-05-15T09:49:03,42.805,6.029,0.054,-0.013,0.011,102.0,102.0,100.0,13.4,1505.2,326.6,-0.8,1.9,2470.856,13.28,0.055,103.5
2022-05-15T09:52:03,42.805,6.029,0.082,-0.002,0.009,102.0,104.0,101.0,13.4,1505.2,323.8,-0.8,1.8,2470.805,13.28,0.082,91.4
2022-05-15T09:55:03,42.805,6.029,0.077,-0.028,-0.02,102.0,102.0,101.0,13.3,1505.2,322.0,-0.8,1.8,2470.843,13.28,0.081,110.0
2022-05-15T09:58:03,42.805,6.029,0.084,-0.014,0.015,102.0,101.0,102.0,13.4,1505.2,327.2,-0.8,1.8,2470.869,13.28,0.085,99.5
2022-05-15T10:04:03,42.805,6.029,0.099,-0.04,0.007,100.0,103.0,100.0,13.4,1505.2,328.9,-0.7,1.8,2470.858,13.28,0.106,112.0